Weather History for Terre Haute, IN

Change the Weather History Date:

Saturday, March 2, 2013

  Actual Average Record
Temperature  
Mean Temperature 30 °F 37 °F  
Max Temperature 31 °F 47 °F 71 °F (1976)
Min Temperature 28 °F 28 °F 1 °F (1980)
Degree Days  
Heating Degree Days 35 28  
Month to date heating degree days 68 56  
Since 1 July heating degree days 3989 4219  
Cooling Degree Days 0 0  
Month to date cooling degree days 0 0  
Year to date cooling degree days 0 0  
Moisture  
Dew Point 24 °F    
Average Humidity 77    
Maximum Humidity 85    
Minimum Humidity 69    
Precipitation  
Precipitation T in 0.08 in 1.24 in (2012)
Month to date precipitation 0.03 0.15  
Year to date precipitation 7.68 4.44  
Sea Level Pressure  
Sea Level Pressure 30.14 in    
Wind  
Wind Speed 9 mph (NNW)    
Max Wind Speed 14 mph    
Max Gust Speed 18 mph    
Visibility 6 miles    
Events Snow    
T = Trace of Precipitation, MM = Missing Value Source: NWS Daily Summary

Daily Weather History Graph

Daily Weather History Graph

Search for Another Location

Airport:

Trip Planner

Search our weather history database for the weather conditions in past years. The results will help you decide how hot, cold, wet, or windy it might be!

Date:

Astronomy

Mar. 02, 2013 Rise Set
Actual Time 7:20 AM EST 6:42 PM EST
Civil Twilight 6:53 AM EST 7:09 PM EST
Nautical Twilight 6:22 AM EST 7:40 PM EST
Astronomical Twilight 5:51 AM EST 8:12 PM EST
Moon No Moon Rise 9:49 AM EST (3/2)
Length of Visible Light 12h 16m
Length of Day
11h 22m
Waning Gibbous, 74% of the Moon is Illuminated
Mar 2
Waning Gibbous
Mar 4
Last Quarter
Mar 11
New
Mar 19
First Quarter
Mar 27
Full

Hourly Weather History & Observations

Time (EST) Temp. Windchill Dew Point Humidity Pressure Visibility Wind Dir Wind Speed Gust Speed Precip Events Conditions
12:09 AM 30.2 °F 24.3 °F 26.6 °F 86% 30.10 in 10.0 mi North 5.8 mph - N/A   Overcast
12:53 AM 30.0 °F 21.7 °F 25.0 °F 82% 30.12 in 10.0 mi North 9.2 mph - N/A   Overcast
1:23 AM 30.2 °F 20.8 °F 24.8 °F 80% 30.10 in 10.0 mi North 11.5 mph - N/A   Overcast
1:53 AM 30.0 °F 22.4 °F 24.1 °F 79% 30.12 in 10.0 mi North 8.1 mph - N/A   Overcast
2:07 AM 30.2 °F 24.3 °F 24.8 °F 80% 30.10 in 10.0 mi NNW 5.8 mph - N/A   Overcast
2:53 AM 28.9 °F 21.9 °F 24.1 °F 82% 30.12 in 10.0 mi North 6.9 mph - N/A   Overcast
3:15 AM 28.4 °F 21.2 °F 24.8 °F 86% 30.09 in 10.0 mi NNW 6.9 mph - N/A   Overcast
3:53 AM 28.9 °F 20.4 °F 24.1 °F 82% 30.11 in 10.0 mi NNW 9.2 mph - N/A   Overcast
4:53 AM 28.9 °F 19.8 °F 24.1 °F 82% 30.11 in 10.0 mi NNW 10.4 mph - N/A   Overcast
5:53 AM 28.9 °F 20.4 °F 25.0 °F 85% 30.11 in 10.0 mi NNW 9.2 mph - N/A   Overcast
6:41 AM 28.4 °F 19.1 °F 24.8 °F 86% 30.10 in 10.0 mi North 10.4 mph - N/A   Overcast
6:53 AM 28.9 °F 19.2 °F 24.1 °F 82% 30.12 in 10.0 mi North 11.5 mph - N/A   Overcast
7:53 AM 28.0 °F 19.3 °F 23.0 °F 81% 30.14 in 10.0 mi NNW 9.2 mph - N/A   Overcast
8:53 AM 28.9 °F 21.1 °F 24.1 °F 82% 30.15 in 5.0 mi NNW 8.1 mph - 0.00 in Snow Light Snow
9:51 AM 28.4 °F 19.7 °F 24.8 °F 86% 30.13 in 5.0 mi NW 9.2 mph - 0.00 in Snow Light Snow
9:53 AM 28.9 °F 20.4 °F 24.1 °F 82% 30.15 in 5.0 mi NNW 9.2 mph - 0.00 in Snow Light Snow
10:29 AM 28.4 °F 20.4 °F 24.8 °F 86% 30.14 in 2.0 mi NNW 8.1 mph - 0.00 in Snow Light Snow
10:41 AM 28.4 °F 20.4 °F 24.8 °F 86% 30.14 in 1.0 mi NNW 8.1 mph - 0.00 in Snow Light Snow
10:53 AM 28.9 °F 21.9 °F 25.0 °F 85% 30.16 in 1.0 mi North 6.9 mph - 0.00 in Snow Light Snow
11:04 AM 28.4 °F 18.5 °F 24.8 °F 86% 30.14 in 1.8 mi North 11.5 mph 16.1 mph 0.00 in Snow Light Snow
11:11 AM 28.4 °F 18.0 °F 23.0 °F 80% 30.14 in 2.5 mi North 12.7 mph - 0.00 in Snow Light Snow
11:26 AM 28.4 °F 19.7 °F 24.8 °F 86% 30.14 in 1.0 mi North 9.2 mph - 0.00 in Snow Light Snow
11:53 AM 28.9 °F 22.8 °F 24.1 °F 82% 30.16 in 1.0 mi NNW 5.8 mph - 0.00 in Snow Light Snow
11:56 AM 28.4 °F 22.2 °F 24.8 °F 86% 30.14 in 3.0 mi NNW 5.8 mph - 0.00 in Snow Light Snow
12:53 PM 30.9 °F 22.8 °F 21.0 °F 67% 30.16 in 10.0 mi North 9.2 mph 16.1 mph 0.00 in   Overcast
1:53 PM 30.9 °F 22.2 °F 21.9 °F 69% 30.14 in 10.0 mi North 10.4 mph - N/A   Overcast
2:53 PM 30.9 °F 22.8 °F 21.9 °F 69% 30.14 in 10.0 mi North 9.2 mph - 0.00 in   Overcast
3:50 PM 30.2 °F 21.9 °F 24.8 °F 80% 30.12 in 1.8 mi NNW 9.2 mph - 0.00 in Snow Light Snow
3:53 PM 30.0 °F 21.1 °F 25.0 °F 82% 30.14 in 2.0 mi NNW 10.4 mph - 0.00 in Snow Light Snow
4:26 PM 28.4 °F 19.1 °F 24.8 °F 86% 30.13 in 2.0 mi NW 10.4 mph 17.3 mph 0.00 in Snow Light Snow
4:53 PM 28.9 °F 21.1 °F 25.0 °F 85% 30.15 in 2.0 mi NNW 8.1 mph - 0.00 in Snow Light Snow
5:47 PM 30.2 °F 24.3 °F 26.6 °F 86% 30.14 in 3.0 mi NW 5.8 mph - 0.00 in Snow Light Snow
5:48 PM 30.0 °F 23.2 °F 26.1 °F 85% 30.16 in 3.0 mi NW 6.9 mph - 0.00 in Snow Light Snow
6:53 PM 28.9 °F 21.1 °F 25.0 °F 85% 30.17 in 6.0 mi NW 8.1 mph - 0.00 in Snow Light Snow
7:21 PM 28.4 °F 18.5 °F 24.8 °F 86% 30.15 in 6.0 mi NNW 11.5 mph - 0.00 in Snow Light Snow
8:53 PM 28.0 °F 22.8 °F 21.9 °F 78% 30.17 in 10.0 mi NW 4.6 mph - N/A   Overcast
9:53 PM 28.9 °F 21.9 °F 21.9 °F 75% 30.18 in 10.0 mi NW 6.9 mph - N/A   Overcast
10:53 PM 28.0 °F 19.3 °F 21.0 °F 75% 30.18 in 10.0 mi NW 9.2 mph - N/A   Overcast
11:53 PM 28.0 °F 19.3 °F 21.0 °F 75% 30.17 in 10.0 mi NW 9.2 mph - N/A   Overcast